Weather in Mizhgirie

Ukraine / Zakarpattia District     48˚31′42″N   23˚30′05″E
temp.,
°C
wind,
m/s
gust,
m/s
humid.,
%
clouds,
%
prec.,
mm/h
press.,
hPa
HPBL,
m
29 november, sun
sun2923:00−4˚sw1294100 0.1 1022182
02:00−4˚ssw1292100 0.4 1021164
05:00−4˚ssw1295100 0.6 1021150
08:00−4˚s129599 1.1 1021160
11:00−3˚ssw2284100 0.4 1022383
14:00−2˚sw1283100 0.6 1021365
17:00−4˚wsw1197100 0.3 102223
20:00−6˚ne019773 0.3 102321
30 november, mon
mon3023:00−6˚ne11950 0.0 102321
02:00−6˚ne11930 0.0 102421
05:00−7˚ne11900 0.0 102521
08:00−7˚ne11890 0.0 102721
11:00−2˚nnw01660 0.0 1027353
14:00−1˚w11610 0.0 1027702
17:00−5˚w01860 0.0 102821
20:00−6˚ene11860 0.0 102921
1 december, tue
tue123:00−6˚e11860 0.0 102921
02:00−6˚ese11860 0.0 102921
05:00−7˚e11870 0.0 102821
08:00−7˚e11850 0.0 102821
11:00−2˚sse11570 0.0 1027238
14:00sw10520 0.0 1025319
17:00−4˚ne11700 0.0 102521
20:00−4˚ene11650 0.0 102621
2 december, wed
wed223:00−5˚ene11580 0.0 102621
02:00−5˚ene11530 0.0 102521
05:00−5˚ene11490 0.0 102521
08:00−5˚ene11460 0.0 102521
11:00ene013628 0.0 1024119
14:00+1˚wsw113735 0.0 1022239
17:00−3˚ne115331 0.0 102321
20:00−3˚ene115850 0.0 102321
3 december, thu
thu323:00−3˚e116865 0.0 102321
02:00−4˚e117332 0.0 102221
05:00−4˚e117914 0.0 102121
08:00−3˚e117853 0.0 102121
11:00+1˚se125525 0.0 1020107
14:00+3˚se115322 0.0 1017110
17:00e116246 0.0 101621
20:00ene116863 0.0 101622